• Em Portugal
  • Lista de países
  • Para 7 dias
  • Temperatura da água
  • Mapas de satélite
  • Mapa do tempo
  • Widgets de tempo
  • user-avatar
    Iniciar Sessão

    Previsão horária em Zaranj

    Hoje, 20 Novembro, Segunda-feira

    Tempo Temperatura Precipitação Vento Pressão Humidade
    00:00 +15°C° 0 mm 2 m/s 723 mmHg 25%
    01:00 +14°C° 0 mm 2 m/s 723 mmHg 26%
    02:00 +14°C° 0 mm 2 m/s 723 mmHg 27%
    03:00 +13°C° 0 mm 1 m/s 723 mmHg 28%
    04:00 +12°C° 0 mm 1 m/s 723 mmHg 31%
    05:00 +12°C° 0 mm 1 m/s 723 mmHg 31%
    06:00 +12°C° 0 mm 1 m/s 723 mmHg 31%
    07:00 +11°C° 0 mm 0 m/s 723 mmHg 31%
    08:00 +13°C° 0 mm 0 m/s 724 mmHg 27%
    09:00 +15°C° 0 mm 0 m/s 724 mmHg 23%
    10:00 +17°C° 0 mm 0 m/s 724 mmHg 19%
    11:00 +18°C° 0 mm 0 m/s 724 mmHg 17%
    12:00 +21°C° 0 mm 1 m/s 724 mmHg 15%
    13:00 +22°C° 0 mm 1 m/s 723 mmHg 13%
    14:00 +22°C° 0 mm 1 m/s 723 mmHg 13%
    15:00 +22°C° 0 mm 1 m/s 723 mmHg 13%
    16:00 +21°C° 0 mm 1 m/s 722 mmHg 13%
    17:00 +20°C° 0 mm 1 m/s 722 mmHg 14%
    18:00 +19°C° 0 mm 1 m/s 722 mmHg 16%
    19:00 +16°C° 0 mm 1 m/s 723 mmHg 17%
    20:00 +15°C° 0 mm 0 m/s 722 mmHg 18%
    21:00 +14°C° 0 mm 0 m/s 722 mmHg 19%
    22:00 +13°C° 0 mm 0 m/s 722 mmHg 19%
    23:00 +13°C° 0 mm 0 m/s 722 mmHg 20%

    Amanhã, 21 Novembro, Terça-feira

    Tempo Temperatura Precipitação Vento Pressão Humidade
    00:00 +13°C° 0 mm 0 m/s 722 mmHg 21%
    01:00 +12°C° 0 mm 0 m/s 721 mmHg 21%
    02:00 +12°C° 0 mm 0 m/s 721 mmHg 22%
    03:00 +11°C° 0 mm 0 m/s 721 mmHg 22%
    04:00 +11°C° 0 mm 0 m/s 721 mmHg 23%
    05:00 +11°C° 0 mm 0 m/s 721 mmHg 23%
    06:00 +11°C° 0 mm 0 m/s 721 mmHg 23%
    07:00 +12°C° 0 mm 1 m/s 722 mmHg 22%
    08:00 +14°C° 0 mm 1 m/s 722 mmHg 19%
    09:00 +18°C° 0 mm 1 m/s 722 mmHg 17%
    10:00 +20°C° 0 mm 1 m/s 723 mmHg 14%
    11:00 +21°C° 0 mm 1 m/s 722 mmHg 13%
    12:00 +22°C° 0 mm 1 m/s 722 mmHg 12%
    13:00 +23°C° 0 mm 1 m/s 721 mmHg 10%
    14:00 +23°C° 0 mm 1 m/s 721 mmHg 10%
    15:00 +23°C° 0 mm 1 m/s 720 mmHg 10%
    16:00 +23°C° 0 mm 2 m/s 720 mmHg 10%
    17:00 +20°C° 0 mm 2 m/s 720 mmHg 11%
    18:00 +19°C° 0 mm 2 m/s 720 mmHg 12%
    19:00 +18°C° 0 mm 2 m/s 720 mmHg 13%
    20:00 +17°C° 0 mm 2 m/s 720 mmHg 14%
    21:00 +17°C° 0 mm 2 m/s 720 mmHg 14%
    22:00 +17°C° 0 mm 2 m/s 720 mmHg 15%
    23:00 +16°C° 0 mm 2 m/s 720 mmHg 15%

    Depois de amanhã, 22 Novembro, Quarta-feira

    Tempo Temperatura Precipitação Vento Pressão Humidade
    00:00 +16°C° 0 mm 2 m/s 719 mmHg 15%
    01:00 +16°C° 0 mm 2 m/s 719 mmHg 16%
    02:00 +15°C° 0 mm 2 m/s 719 mmHg 16%
    03:00 +15°C° 0 mm 2 m/s 719 mmHg 16%
    04:00 +14°C° 0 mm 2 m/s 718 mmHg 17%
    05:00 +15°C° 0 mm 2 m/s 719 mmHg 17%
    06:00 +15°C° 0 mm 2 m/s 719 mmHg 17%
    07:00 +15°C° 0 mm 2 m/s 719 mmHg 17%
    08:00 +16°C° 0 mm 3 m/s 719 mmHg 16%
    09:00 +18°C° 0 mm 3 m/s 720 mmHg 14%
    10:00 +20°C° 0 mm 3 m/s 720 mmHg 12%
    11:00 +21°C° 0 mm 3 m/s 719 mmHg 11%
    12:00 +22°C° 0 mm 3 m/s 719 mmHg 10%
    13:00 +24°C° 0 mm 3 m/s 718 mmHg 9%
    14:00 +24°C° 0 mm 3 m/s 718 mmHg 9%
    15:00 +25°C° 0 mm 2 m/s 718 mmHg 9%
    16:00 +25°C° 0 mm 2 m/s 717 mmHg 9%
    17:00 +23°C° 0 mm 2 m/s 718 mmHg 9%
    18:00 +21°C° 0 mm 2 m/s 718 mmHg 10%
    19:00 +20°C° 0 mm 2 m/s 718 mmHg 11%
    20:00 +19°C° 0 mm 2 m/s 718 mmHg 11%
    21:00 +19°C° 0 mm 2 m/s 718 mmHg 12%
    22:00 +18°C° 0 mm 2 m/s 718 mmHg 12%
    23:00 +18°C° 0 mm 2 m/s 717 mmHg 13%

    23 Novembro, Quinta-feira

    Tempo Temperatura Precipitação Vento Pressão Humidade
    00:00 +18°C° 0 mm 2 m/s 717 mmHg 14%
    01:00 +18°C° 0 mm 2 m/s 717 mmHg 14%
    02:00 +17°C° 0 mm 2 m/s 717 mmHg 15%
    03:00 +17°C° 0 mm 2 m/s 716 mmHg 15%
    04:00 +16°C° 0 mm 2 m/s 716 mmHg 16%
    05:00 +16°C° 0 mm 2 m/s 717 mmHg 16%
    06:00 +16°C° 0 mm 2 m/s 717 mmHg 17%
    07:00 +16°C° 0 mm 2 m/s 717 mmHg 17%
    08:00 +18°C° 0 mm 2 m/s 718 mmHg 15%
    09:00 +19°C° 0 mm 2 m/s 718 mmHg 13%
    10:00 +21°C° 0 mm 2 m/s 718 mmHg 12%
    11:00 +23°C° 0 mm 2 m/s 718 mmHg 12%
    12:00 +24°C° 0 mm 1 m/s 717 mmHg 12%
    13:00 +25°C° 0 mm 1 m/s 717 mmHg 12%
    14:00 +25°C° 0 mm 1 m/s 717 mmHg 13%
    15:00 +25°C° 0 mm 1 m/s 716 mmHg 14%
    16:00 +25°C° 0 mm 1 m/s 716 mmHg 15%
    17:00 +24°C° 0 mm 1 m/s 716 mmHg 16%
    18:00 +22°C° 0 mm 1 m/s 717 mmHg 18%
    19:00 +19°C° 0 mm 0 m/s 717 mmHg 20%
    20:00 +18°C° 0 mm 0 m/s 717 mmHg 21%
    21:00 +18°C° 0 mm 0 m/s 717 mmHg 22%
    22:00 +18°C° 0 mm 0 m/s 717 mmHg 23%
    23:00 +19°C° 0 mm 1 m/s 717 mmHg 24%

    24 Novembro, Sexta-feira

    Tempo Temperatura Precipitação Vento Pressão Humidade
    00:00 +19°C° 0 mm 1 m/s 717 mmHg 25%
    01:00 +19°C° 0 mm 1 m/s 717 mmHg 25%
    02:00 +19°C° 0 mm 1 m/s 716 mmHg 26%
    03:00 +18°C° 0 mm 2 m/s 716 mmHg 26%
    04:00 +18°C° 0 mm 2 m/s 716 mmHg 26%
    05:00 +17°C° 0 mm 2 m/s 717 mmHg 27%
    06:00 +17°C° 0 mm 2 m/s 717 mmHg 27%
    07:00 +17°C° 0 mm 2 m/s 717 mmHg 27%
    08:00 +19°C° 0 mm 2 m/s 718 mmHg 25%
    09:00 +21°C° 0 mm 2 m/s 718 mmHg 23%
    10:00 +23°C° 0 mm 2 m/s 719 mmHg 20%
    11:00 +24°C° 0 mm 2 m/s 718 mmHg 20%
    12:00 +25°C° 0 mm 2 m/s 718 mmHg 21%
    13:00 +26°C° 0 mm 1 m/s 717 mmHg 21%
    14:00 +26°C° 0 mm 2 m/s 717 mmHg 22%
    15:00 +26°C° 0 mm 2 m/s 717 mmHg 22%
    16:00 +26°C° 0 mm 2 m/s 716 mmHg 23%
    17:00 +25°C° 0 mm 2 m/s 717 mmHg 24%
    18:00 +24°C° 0 mm 2 m/s 717 mmHg 26%
    19:00 +22°C° 0 mm 3 m/s 717 mmHg 27%
    20:00 +21°C° 0 mm 2 m/s 717 mmHg 29%
    21:00 +21°C° 0 mm 2 m/s 717 mmHg 30%
    22:00 +20°C° 0 mm 2 m/s 717 mmHg 32%
    23:00 +20°C° 0 mm 1 m/s 717 mmHg 33%

    25 Novembro, Sábado

    Tempo Temperatura Precipitação Vento Pressão Humidade
    00:00 +20°C° 0 mm 1 m/s 717 mmHg 35%
    01:00 +19°C° 0 mm 1 m/s 716 mmHg 37%
    02:00 +19°C° 0 mm 1 m/s 716 mmHg 38%
    03:00 +19°C° 0 mm 1 m/s 716 mmHg 39%
    04:00 +18°C° 0 mm 1 m/s 716 mmHg 39%
    05:00 +19°C° 0 mm 1 m/s 717 mmHg 39%
    06:00 +18°C° 0 mm 2 m/s 717 mmHg 39%
    07:00 +18°C° 0 mm 2 m/s 718 mmHg 39%
    08:00 +20°C° 0 mm 4 m/s 719 mmHg 35%
    09:00 +22°C° 0 mm 5 m/s 719 mmHg 31%
    10:00 +24°C° 0 mm 7 m/s 720 mmHg 26%
    11:00 +26°C° 0 mm 7 m/s 720 mmHg 21%
    12:00 +26°C° 0 mm 7 m/s 720 mmHg 16%
    13:00 +27°C° 0 mm 7 m/s 720 mmHg 11%
    14:00 +27°C° 0 mm 6 m/s 720 mmHg 10%
    15:00 +26°C° 0 mm 6 m/s 720 mmHg 10%
    16:00 +26°C° 0 mm 5 m/s 720 mmHg 10%
    17:00 +23°C° 0 mm 5 m/s 721 mmHg 13%
    18:00 +22°C° 0 mm 4 m/s 721 mmHg 15%
    19:00 +20°C° 0 mm 4 m/s 722 mmHg 18%
    20:00 +20°C° 0 mm 4 m/s 722 mmHg 22%
    21:00 +19°C° 0 mm 3 m/s 722 mmHg 25%
    22:00 +18°C° 0 mm 3 m/s 723 mmHg 29%
    23:00 +18°C° 0 mm 3 m/s 723 mmHg 30%
    Mostrar mais